Hourly Data Report for October 30, 2015

All times are specified in Local Standard Time (LST). Add 1 hour to adjust for Daylight Saving Time where and when it is observed.

CORAL HARBOUR A
NUNAVUT

64°11'36.000" N
83°21'34.000" W
62.20 m
2301002
71915
YZS

Download Data

Hourly Data (October 2015)
Hourly Data Report for October 30, 2015
Temp Definition
°C
Dew Point Temp Definition
°C
Rel Hum Definition
%
Wind Dir Definition
10's deg

Wind Spd Definition
km/h
Visibility Definition
km
Stn Press Definition
kPa
Hmdx Definition


Wind Chill Definition


Weather Definition


TIME
00:00 Legend Double Dagger -12.9 -15.5 81 1 24 24.1 99.71   -22 Snow
01:00 Legend Double Dagger -14.3 -17.0 80 1 23 22.5 99.73   -24 Snow
02:00 Legend Double Dagger -15.1 -18.0 79 2 24 24.1 99.78   -25 Snow
03:00
04:00 Legend Double Dagger -15.9 -19.4 75 2 28 24.1 99.85   -27 Mainly Clear
05:00 Legend Double Dagger -16.7 -20.2 75 1 25 24.1 99.90   -27 LegendNANA
06:00 Legend Double Dagger -16.9 -20.0 77 36 26 24.1 99.93   -28 LegendNANA
07:00 Legend Double Dagger -16.2 -19.5 76 1 24 24.1 99.95   -27 Clear
08:00 Legend Double Dagger -18.0 -21.7 73 1 16 24.1 99.97   -27 LegendNANA
09:00 Legend Double Dagger -16.0 -19.3 76 36 16 24.1 99.98   -24 LegendNANA
10:00 Legend Double Dagger -14.6 -18.4 73 35 13 24.1 99.99   -22 Mainly Clear
11:00 Legend Double Dagger -11.6 -15.7 72 33 12 24.1 100.00   -18 LegendNANA
12:00 Legend Double Dagger -10.8 -13.9 78 34 17 24.1 100.03   -18 LegendNANA
13:00 Legend Double Dagger -10.3 -13.1 80 36 13 24.1 100.05   -17 Mostly Cloudy
14:00 Legend Double Dagger -9.7 -13.0 77 34 12 24.1 100.08   -16 LegendNANA
15:00 Legend Double Dagger -9.1 -11.6 82 32 16 24.1 100.13   -16 LegendNANA
16:00 Legend Double Dagger -9.1 -11.8 81 35 15 24.1 100.16   -16 Snow
17:00 Legend Double Dagger -10.1 -13.6 76 1 24 24.1 100.19   -19 Snow
18:00 Legend Double Dagger -12.0 -14.9 79 1 26 24.1 100.22   -22 Snow
19:00 Legend Double Dagger -12.1 -15.0 79 1 22 24.1 100.26   -21 Snow
20:00 Legend Double Dagger -12.5 -15.4 79 1 22 24.1 100.30   -21 Snow
21:00 Legend Double Dagger -12.4 -15.6 77 2 19 24.1 100.34   -21 Snow
22:00 Legend Double Dagger -12.9 -15.4 82 31 8 24.1 100.36   -18 Snow
23:00 Legend Double Dagger -12.0 -15.3 77 35 18 24.1 100.37   -20 LegendNANA

Notes on Data Quality.

Legend

  • E = Estimated
  • M = Missing
  • NA = Not Available
  • ‡ = Partner data that is not subject to review by the National Climate Archives
Date modified: